Regional Weather Roundup
Issued by NWS

Home | Current Version | Previous Version | Text Only | Print | Product List | Glossary Off
Versions: 1 2 3 4 5 6 7 8 9 10 11 12 13 14 15 16 17 18 19 20 21 22 23 24 25 26 27 28 29 30 31 32 33 34 35 36 37 38 39 40 41 42 43 44 45 46 47 48 49 50

000
ASUS43 KBIS 050102
RWRND

NORTH DAKOTA REGIONAL WEATHER ROUNDUP
NATIONAL WEATHER SERVICE BISMARCK ND
700 PM CST SUN DEC 04 2016

NOTE: "FAIR" INDICATES FEW OR NO CLOUDS BELOW 12,000 FEET WITH NO
SIGNIFICANT WEATHER AND/OR OBSTRUCTIONS TO VISIBILITY.


NDZ001>003-009>011-017-050200-
NORTHWEST NORTH DAKOTA

CITY           SKY/WX    TMP DP  RH WIND       PRES   REMARKS
WILLISTON      CLOUDY    26  20  77 CALM      29.57F
MINOT          CLEAR     15  13  91 CALM      29.62F
MINOT AFB      CLEAR      9   7  90 CALM      29.62S
$$

NDZ018>021-031>035-040>046-050200-
SOUTHWEST NORTH DAKOTA

CITY           SKY/WX    TMP DP  RH WIND       PRES   REMARKS
BISMARCK       CLEAR     17  16  95 E3        29.67F
DICKINSON      CLEAR     19  14  81 S9        29.57F WCI   8
GARRISON         N/A     19  17  92 CALM      29.63F
HETTINGER ARPT CLOUDY    28  20  71 S3        29.62F
$$

NDZ004>008-012>016-024-026-027-054-050200-
NORTHEAST NORTH DAKOTA

CITY           SKY/WX    TMP DP  RH WIND       PRES   REMARKS
GRAND FORKS    CLOUDY    31  26  82 W13       29.65S
GRND FRKS AFB  CLOUDY    29  26  86 NW9       29.65F
DEVILS LAKE    FLURRIES  24  23  96 W10       29.65R WCI  14
$$

NDZ022-023-025-028>030-036>039-047>053-050200-
SOUTHEAST NORTH DAKOTA

CITY           SKY/WX    TMP DP  RH WIND       PRES   REMARKS
FARGO          CLEAR     28  24  85 SW5       29.69S
JAMESTOWN      CLEAR     26  22  84 W7        29.67R WCI  18
$$





USA.gov is the U.S. government's official web portal to all federal, state and local government web resources and services.